Juliana Airport, Sint Maarten

8:52 AM AST on April 22, 2018 (GMT -0400)
Princess Juliana International

Weather History for TNCM - March, 2012

Change the Weather History Date:

Friday, March 16, 2012

  Actual Average Record
Temperature  
Mean Temperature 78 °F -  
Max Temperature 82 °F 83 °F 86 °F (2001)
Min Temperature 74 °F 73 °F 71 °F (2007)
Cooling Degree Days 13    
Growing Degree Days 28 (Base 50)    
Moisture  
Dew Point 66 °F    
Average Humidity 65    
Maximum Humidity 73    
Minimum Humidity 53    
Precipitation  
Precipitation 0.00 in 0.07 in - ()
Sea Level Pressure  
Sea Level Pressure 30.04 in    
Wind  
Wind Speed 10 mph ()    
Max Wind Speed 16 mph    
Max Gust Speed -    
Visibility 6.2 miles    
Events      
Averages and records for this station are not official NWS values.
T = Trace of Precipitation, MM = Missing Value Source: Averaged Metar Reports

Daily Weather History Graph

Daily Weather History Graph

Search for Another Location

Airport or City:

Astronomy

Mar. 16, 2012 Rise Set
Actual Time 6:19 AM AST 6:22 PM AST
Civil Twilight 5:57 AM AST 6:44 PM AST
Nautical Twilight 5:32 AM AST 7:09 PM AST
Astronomical Twilight 5:07 AM AST 7:34 PM AST
Moon 1:50 AM AST (3/16) 1:20 PM AST (3/16)
Length of Visible Light 12h 46m
Length of Day
12h 03m
Waning Crescent, 33% of the Moon is Illuminated
Mar 16
Waning Crescent
Mar 22
New
Mar 30
First Quarter
Apr 6
Full
Apr 13
Last Quarter

Hourly Weather History & Observations

Time (AST) Temp. Heat Index Dew Point Humidity Pressure Visibility Wind Dir Wind Speed Gust Speed Precip Events Conditions
12:00 AM 77.0 °F - 66.2 °F 69% 30.06 in 6.2 mi East 13.8 mph - N/A   Partly Cloudy
1:00 AM 77.0 °F - 66.2 °F 69% 30.06 in 6.2 mi East 16.1 mph - N/A   Partly Cloudy
2:00 AM 75.2 °F - 64.4 °F 69% 30.04 in 6.2 mi East 13.8 mph - N/A   Partly Cloudy
3:00 AM 75.2 °F - 66.2 °F 73% 30.01 in 6.2 mi East 11.5 mph - N/A   Partly Cloudy
4:00 AM 75.2 °F - 64.4 °F 69% 30.01 in 6.2 mi East 10.4 mph - N/A   Partly Cloudy
5:00 AM 75.2 °F - 64.4 °F 69% 30.01 in 6.2 mi East 8.1 mph - N/A   Partly Cloudy
6:00 AM 75.2 °F - 64.4 °F 69% 30.04 in 6.2 mi East 10.4 mph - N/A   Partly Cloudy
7:00 AM 77.0 °F - 64.4 °F 65% 30.06 in 6.2 mi East 10.4 mph - N/A   Partly Cloudy
8:00 AM 78 °F - 65 °F 57% 30.08 in 34 mi ESE 10.4 mph - -   Scattered Clouds
8:00 AM 78.8 °F - 66.2 °F 65% 30.06 in 6.2 mi East 10.4 mph - N/A   Partly Cloudy
9:00 AM 78.8 °F - 66.2 °F 65% 30.09 in 6.2 mi East 10.4 mph - N/A   Partly Cloudy
10:00 AM 80.6 °F 82.7 °F 66.2 °F 61% 30.09 in 6.2 mi ESE 12.7 mph - N/A   Scattered Clouds
11:00 AM 81 °F - 67 °F 53% 30.09 in 34 mi ESE 15.0 mph - -   Partly Cloudy
11:00 AM 80.6 °F 82.7 °F 66.2 °F 61% 30.06 in 6.2 mi ESE 15.0 mph - N/A   Scattered Clouds
12:00 PM 80.6 °F 82.7 °F 66.2 °F 61% 30.06 in 6.2 mi East 15.0 mph - N/A   Scattered Clouds
1:00 PM 82.4 °F 85.4 °F 68.0 °F 62% 30.04 in 6.2 mi SE 8.1 mph - N/A   Scattered Clouds
2:00 PM 81 °F - 68 °F 56% 30.03 in 34 mi SSE 11.5 mph - -   Scattered Clouds
2:00 PM 80.6 °F 83.2 °F 68.0 °F 65% 30.01 in 6.2 mi SE 11.5 mph - N/A   Partly Cloudy
3:00 PM 82.4 °F 85.4 °F 68.0 °F 62% 30.01 in 6.2 mi SE 9.2 mph - N/A   Partly Cloudy
4:00 PM 80.6 °F 82.7 °F 66.2 °F 61% 30.01 in 6.2 mi ESE 6.9 mph - N/A   Scattered Clouds
5:00 PM 80 °F - 66 °F 54% 30.01 in 34 mi ESE 6.9 mph - -   Scattered Clouds
5:00 PM 80.6 °F 83.2 °F 68.0 °F 65% 30.01 in 6.2 mi ESE 8.1 mph - N/A   Partly Cloudy
6:00 PM 78.8 °F - 68.0 °F 69% 30.01 in 6.2 mi East 8.1 mph - N/A   Scattered Clouds
7:00 PM 77.0 °F - 66.2 °F 69% 30.04 in 6.2 mi East 8.1 mph - N/A   Partly Cloudy
8:00 PM 77 °F - 67 °F 64% 30.05 in 22 mi East 5.8 mph - -   Partly Cloudy
8:00 PM 77.0 °F - 66.2 °F 69% 30.04 in 6.2 mi East 9.2 mph - N/A   Scattered Clouds
9:00 PM 77.0 °F - 66.2 °F 69% 30.06 in 6.2 mi East 6.9 mph - N/A   Partly Cloudy
10:00 PM 77.0 °F - 66.2 °F 69% 30.06 in 6.2 mi East 6.9 mph - N/A   Partly Cloudy
11:00 PM 76 °F - 66 °F 64% 30.08 in 22 mi East 5.8 mph - -   Scattered Clouds
11:00 PM 77.0 °F - 66.2 °F 69% 30.06 in 6.2 mi East 5.8 mph - N/A   Partly Cloudy